{"data":{"norad_id":67275,"intl_designator":"2025-313AD","name":"2025-313AD","alt_names":[],"object_type":"PAYLOAD","status":"ACTIVE","operator":null,"country":"TBD","launch_date":"2025-12-28","launch_site_code":"VOSTO","launch_vehicle":null,"mission":null,"orbit_class":"UNKNOWN","rcs_meters":null,"size_class":null,"mass_kg":null,"dimensions":null,"purposes":[],"wikipedia_slug":null,"has_3d_model":false,"image_url":null,"decayed_at":null,"tle_current":{"epoch":"2026-05-25T03:39:28.706976Z","epoch_age_seconds":55849,"freshness":"FRESH","line1":"1 67275U 25313AD  26145.15241559  .00006385  00000+0  27956-3 0  9994","line2":"2 67275  97.3913 220.0728 0015382  90.1179 270.1820 15.22271361 22440","mean_motion":15.22271361,"eccentricity":0.0015382,"inclination_deg":97.3913,"raan_deg":220.0728,"arg_perigee_deg":90.1179,"mean_anomaly_deg":270.182,"bstar":0.00027956,"rev_number":2244,"period_min":94.595486513919,"perigee_km":488.41284964804,"apogee_km":509.56964699117,"semimajor_km":6877.1282483196,"source":"CELESTRAK","updated_at":"2026-05-25T13:38:06.851655Z"}}}